User: anonymous   Login
Location: Unspecified
(0.0000°N, 0.0000°E)
Time: 21:37:49
(UTC+01:00)
Language:

Cosmos 1515 Rocket - Orbit

View from above orbital plane
View from above orbital plane
View from above satellite
View from above satellite

Ground track
Ground track

The orbit data is extracted from the following two-line orbital elements,

1 14552U 83122B   17327.47562561  .00000104  00000-0  97504-5 0  9994
2 14552  82.5233 287.4958 0017191 359.4882   0.6312 14.83424312832796
Epoch (UTC): 23 November 2017 11:24:54
Eccentricity: 0.0017191
inclination: 82.5233°
perigee height: 606 km
apogee height: 630 km
right ascension of ascending node: 287.4958°
argument of perigee: 359.4882°
revolutions per day: 14.83424312
mean anomaly at epoch: 0.6312°
orbit number at epoch: 83279

The dashed part of the orbit path shows where the satellite is in the earth's shadow,  

DLR